Temp
11 11 11 11 11 10 10 10 10 10 10 10 10 10 10 9 9 9 9 11 13 14 15 15 15 16 16 16 18 19 16 17 18 19 21 24 23 25 27 26 27 27 22 23 23
11 11 11 12 11 11 11 10 10 10 10 10 9 10 9 9 8 9 13 12 14 14 14 14 15 16 15 16 17 18 17 18 20 20 21 23 23 23 25 26 25 24 22 23 23
12 13 12 13 12 11 11 11 10 10 10 10 10 9 9 9 8 13 14 14 15 15 15 15 15 15 15 15 16 18 17 19 20 21 21 22 22 23 23 23 24 23 21 22 22
12 12 12 12 12 12 11 11 11 10 10 10 9 9 9 9 12 14 15 14 15 15 15 15 14 15 15 16 17 16 19 19 20 21 21 21 22 21 21 23 25 22 22 22 22
13 13 12 12 12 12 12 11 11 10 10 10 9 9 8 8 9 13 14 14 15 15 14 14 14 14 14 16 17 16 18 20 20 20 21 21 21 21 22 22 22 23 22 22 22
13 13 13 12 12 12 12 12 11 10 10 9 9 8 8 7 11 13 13 13 13 13 13 13 13 14 14 14 15 17 19 19 19 19 21 21 21 21 22 22 22 22 21 21 22
13 13 12 12 12 12 12 12 12 10 9 9 8 8 9 8 12 12 13 12 13 13 12 13 13 13 14 13 16 16 15 18 18 19 19 21 20 20 22 22 22 21 21 21 21
12 12 12 12 12 12 12 12 12 10 9 8 8 8 7 9 11 11 12 12 13 13 13 14 13 13 13 14 15 16 16 14 18 19 19 19 19 21 22 21 22 20 20 20 21
13 12 12 11 12 11 12 12 12 9 8 7 7 7 6 11 11 12 13 13 14 14 14 14 14 12 13 12 12 14 15 15 16 19 19 18 18 21 21 22 22 22 19 20 21
12 12 12 11 11 11 11 11 9 8 7 7 8 7 7 11 14 14 14 14 13 14 14 14 12 10 10 11 13 13 14 16 16 18 18 19 18 20 21 22 22 22 23 19 22
11 11 11 10 11 11 9 8 8 7 7 9 8 8 12 12 12 12 12 13 13 12 11 12 10 10 11 12 13 14 14 15 17 18 18 18 19 20 21 21 21 22 22 23 20
10 10 10 10 10 11 10 8 8 7 7 9 9 10 10 10 10 11 12 11 11 10 11 10 9 12 13 14 13 13 13 13 15 17 16 17 17 19 21 21 22 22 21 22 22
10 10 10 9 9 7 6 4 5 7 6 7 9 10 11 11 10 10 12 12 11 10 10 9 11 14 14 14 14 14 13 14 14 16 17 16 16 17 19 21 22 23 23 22 23
10 10 10 9 7 5 5 4 6 6 7 9 10 11 12 12 11 13 13 12 12 11 12 11 13 13 13 13 14 13 16 15 15 15 13 15 14 15 17 19 20 22 22 23 21
10 10 10 8 6 6 4 5 5 5 9 11 11 13 13 12 12 13 14 12 11 11 11 10 11 11 11 12 14 12 14 14 14 14 13 14 13 14 16 17 19 21 21 23 23
10 9 8 6 4 4 5 5 4 8 7 11 11 11 11 12 12 13 13 13 13 11 11 10 12 11 12 13 13 13 12 13 13 12 11 12 14 15 16 17 19 21 22 23 23
10 8 6 6 4 4 4 4 7 7 10 8 9 11 11 11 11 12 11 10 9 7 7 9 10 11 12 11 12 12 10 8 8 10 10 14 13 14 16 18 19 20 21 23 24
6 5 5 4 4 4 4 6 7 8 7 7 7 9 9 11 11 9 9 8 10 9 4 4 7 10 11 10 9 10 9 8 8 6 12 14 13 15 17 18 19 19 21 22 23
6 4 3 2 4 4 5 6 7 8 7 6 6 8 9 10 9 9 8 8 10 10 5 2 7 10 10 11 11 9 8 11 9 10 10 11 14 16 18 17 17 19 20 20 23
5 4 3 3 3 4 5 7 7 7 5 5 6 9 7 9 7 4 7 9 9 9 7 6 4 9 10 10 11 11 11 9 8 9 9 11 12 14 16 17 18 18 19 20 22
5 3 3 3 3 4 1 3 6 6 6 5 5 7 7 6 5 5 4 8 10 9 8 4 4 6 8 9 8 8 8 10 9 8 8 10 13 16 17 18 18 19 20 21 21
4 5 2 2 3 0 3 6 7 6 5 5 5 5 6 7 3 4 5 7 10 8 7 6 1 3 5 9 9 9 6 7 9 8 10 10 13 19 16 16 14 13 16 21 22
3 3 2 2 3 2 2 5 6 6 6 5 5 6 8 7 2 4 6 9 9 6 5 5 1 -0 3 6 8 6 8 7 6 7 9 11 11 16 16 15 16 14 14 15 21
3 3 2 2 3 4 5 4 5 6 6 5 5 6 6 6 6 4 7 9 9 8 9 7 2 2 1 3 3 4 6 7 6 7 8 8 10 12 13 12 14 14 15 14 15
3 5 4 2 3 3 4 4 5 5 5 5 5 5 5 2 5 5 7 7 8 8 7 3 1 2 4 5 6 5 5 6 5 7 7 9 9 11 11 12 13 14 13 14 16
4 4 4 4 4 3 4 4 5 5 4 4 4 6 6 3 6 5 6 5 4 6 2 -0 1 5 4 6 7 7 8 8 6 7 8 9 9 8 10 12 12 11 11 11 16
3 2 3 4 5 5 4 5 5 5 5 7 6 5 5 6 7 7 7 7 5 3 1 1 1 0 3 6 5 5 8 8 9 6 8 8 7 7 8 8 10 9 9 10 12
Height
821 819 816 814 811 808 805 803 801 799 797 795 793 790 786 781 775 770 763 753 753 751 751 751 752 753 753 751 749 750 765 752 744 746 736 720 725 710 705 708 704 703 710 708 719
818 815 812 809 805 802 801 798 796 794 793 791 789 787 783 778 770 758 746 750 751 748 747 747 747 751 752 743 743 743 748 733 731 733 731 724 721 717 715 708 709 707 704 706 714
813 810 806 802 799 797 794 792 790 789 789 787 786 784 781 777 769 749 743 749 747 746 742 740 743 748 746 743 737 732 726 726 728 726 725 723 719 714 718 719 708 712 711 709 714
806 803 799 795 792 789 787 785 783 783 782 781 781 781 779 777 767 745 743 742 744 742 739 739 741 744 741 738 733 737 719 723 723 721 721 720 716 716 716 710 697 702 701 707 713
799 795 791 787 784 781 777 775 774 775 775 776 776 777 776 774 755 745 743 742 741 741 740 740 740 743 742 736 733 725 720 717 717 717 714 714 712 713 707 702 697 699 702 705 706
792 788 783 779 775 771 767 765 764 765 769 771 772 773 774 770 742 740 741 741 739 740 740 741 739 739 738 733 729 718 715 713 713 711 709 713 706 709 699 697 696 695 701 701 706
785 780 775 771 767 763 760 756 755 755 760 764 766 767 765 742 740 739 738 737 737 737 737 737 738 739 734 731 721 717 723 711 706 704 704 706 708 697 696 695 696 694 697 697 698
776 772 767 762 759 755 752 748 746 748 753 757 761 764 754 736 735 735 733 734 732 732 732 731 734 733 732 727 718 716 714 720 695 701 697 710 698 690 692 696 693 693 694 692 693
768 765 758 755 751 748 743 739 736 740 747 753 757 760 750 732 729 726 728 729 726 727 727 725 727 729 729 731 729 716 708 706 703 695 702 706 692 687 687 688 689 686 690 691 688
763 757 752 747 745 742 737 731 733 739 746 751 754 763 745 728 725 725 726 726 726 725 724 721 723 733 738 733 714 720 712 704 700 696 698 698 685 685 680 681 683 682 679 686 685
757 751 746 741 738 737 734 733 741 744 742 733 736 730 723 725 724 726 724 725 726 728 729 721 729 727 728 724 718 713 708 703 694 690 690 689 679 680 678 677 677 677 675 674 680
750 745 739 735 730 725 728 731 731 733 732 730 729 730 725 727 727 723 721 727 724 728 727 730 730 720 718 714 715 714 712 702 693 693 695 689 680 675 669 665 667 667 670 668 670
744 739 735 730 727 726 727 732 733 733 738 731 725 723 724 723 725 719 718 718 721 726 725 731 717 709 711 706 706 704 705 697 701 694 688 693 680 678 666 659 657 654 655 660 658
738 735 731 728 729 729 733 735 734 736 736 726 722 720 719 718 720 711 712 718 715 716 713 715 705 707 706 707 704 705 692 692 693 698 701 686 684 678 670 662 656 648 648 649 652
732 729 726 724 728 732 735 737 738 738 730 722 719 717 717 719 716 710 708 714 719 717 717 723 714 711 710 710 701 697 696 694 692 693 695 688 696 674 668 663 653 643 642 639 641
726 721 720 725 730 734 736 739 741 737 744 721 719 723 720 715 714 709 708 708 708 713 712 713 706 709 704 701 700 695 700 694 691 693 700 687 685 658 661 650 644 637 634 634 633
721 722 722 727 734 738 740 743 740 744 727 736 730 723 718 718 715 711 711 715 721 737 732 713 703 702 699 703 696 699 712 726 719 702 691 668 677 648 639 634 631 631 628 624 623
725 728 730 730 737 741 742 744 740 737 738 741 740 729 725 715 714 718 720 724 715 719 747 748 728 701 699 710 713 708 712 723 713 732 670 662 664 629 625 629 625 626 621 622 619
732 735 739 743 745 745 745 746 739 734 738 744 745 730 726 715 722 722 723 723 714 713 742 763 728 703 705 702 703 708 711 689 700 689 684 674 648 619 618 623 624 622 616 621 611
738 741 747 748 749 748 749 738 734 736 744 747 744 729 737 723 731 746 730 718 716 717 723 736 749 705 699 700 692 689 688 696 700 693 693 665 658 629 618 614 612 615 610 606 603
741 747 751 751 752 752 766 752 737 740 740 745 744 736 731 736 740 738 743 721 716 718 721 735 744 719 712 703 705 702 695 685 685 682 688 667 641 604 617 613 611 605 598 595 596
742 745 752 753 756 759 751 736 734 738 743 743 744 741 736 731 749 740 732 723 713 719 726 728 753 745 725 702 699 702 712 693 673 682 662 660 624 596 608 608 612 617 607 588 585
742 747 751 753 755 753 747 737 734 734 735 739 739 736 725 728 752 736 724 710 712 722 730 729 754 766 734 712 699 707 697 698 698 681 670 651 641 603 609 611 608 614 611 601 582
743 745 750 752 747 743 736 735 733 728 730 732 732 729 729 728 724 734 719 711 709 714 712 721 742 749 755 738 730 720 701 695 699 692 671 664 645 630 622 623 614 612 607 601 594
733 731 731 745 739 737 738 733 730 729 731 731 729 728 728 742 728 723 718 715 711 711 717 733 749 737 727 716 707 707 702 694 696 676 678 661 661 641 636 624 613 606 605 598 583
731 730 729 726 726 730 733 726 722 723 729 728 726 714 721 729 716 719 716 721 725 716 729 739 745 721 719 709 698 689 682 674 679 667 665 657 650 656 640 624 611 613 613 606 579
725 727 729 721 720 721 719 714 711 715 716 707 712 717 717 707 708 706 707 711 715 725 732 736 739 747 725 708 704 702 673 666 660 671 659 656 666 659 646 641 627 625 628 615 601
Wind_Speed
28 26 26 26 26 26 25 23 22 20 18 19 20 22 24 26 30 31 22 21 11 22 21 26 30 22 16 10 13 7 7 17 23 19 15 11 6 10 5 3 2 4 8 9 31
28 28 31 32 33 32 30 27 25 21 20 19 19 21 24 26 33 29 15 10 11 11 12 12 10 10 6 4 7 15 14 24 10 17 9 15 16 11 6 4 4 3 4 26 38
33 35 35 37 38 38 38 35 29 24 21 19 18 18 21 25 10 4 18 6 16 14 17 22 17 12 13 6 5 15 26 14 12 17 16 17 18 9 7 7 7 7 8 20 19
37 38 39 40 41 41 41 41 36 27 22 19 16 15 17 16 9 11 9 24 14 10 12 2 6 11 8 16 12 12 24 18 17 16 13 14 8 12 6 8 5 10 20 19 19
38 39 40 40 41 43 44 44 42 31 24 19 14 12 10 7 12 23 21 17 11 7 7 7 6 4 14 12 16 23 19 15 18 22 22 17 20 15 16 12 9 6 15 19 21
38 40 41 42 43 44 47 47 42 35 25 17 12 10 5 16 10 9 14 14 10 11 8 4 4 8 9 8 16 11 12 18 17 18 19 24 24 9 15 9 11 6 17 18 19
41 41 41 41 41 41 42 44 43 33 24 15 10 11 11 26 14 20 23 25 24 25 11 20 13 8 5 6 9 15 16 17 16 15 23 17 20 26 11 10 13 11 8 18 21
42 43 43 44 40 40 40 35 40 29 20 10 9 10 9 21 26 24 16 20 20 21 23 26 21 11 5 7 6 6 16 20 26 20 21 11 30 22 12 10 17 12 7 14 17
39 46 43 37 37 39 34 34 28 17 13 6 7 6 10 13 8 16 14 9 10 15 14 20 16 11 4 6 8 9 12 23 21 12 7 19 28 15 13 14 17 16 8 12 16
43 37 45 38 34 38 29 13 11 8 3 6 9 2 9 6 6 5 1 7 3 7 7 4 5 4 2 6 14 11 8 13 13 10 13 19 27 14 13 20 20 16 18 10 17
40 37 38 37 35 26 7 8 4 1 8 11 12 6 6 3 16 7 16 6 7 5 9 5 6 11 14 11 17 19 20 19 13 7 11 17 25 20 18 15 18 18 19 18 11
37 36 34 36 34 17 15 3 5 1 5 15 15 19 31 19 11 15 15 5 7 12 7 5 12 11 15 14 16 19 23 26 21 13 14 16 21 12 19 23 19 19 15 17 14
36 34 32 28 2 8 12 11 8 6 3 4 14 10 14 11 7 7 3 6 4 8 11 11 8 5 13 16 18 19 19 20 18 16 17 12 23 12 16 17 22 22 19 15 20
36 32 28 5 4 13 6 13 11 7 2 2 2 2 3 3 5 8 3 2 3 5 3 5 13 13 12 10 10 14 14 17 19 15 11 6 18 8 7 14 16 25 18 22 14
34 28 23 12 15 2 11 13 10 2 3 5 3 8 4 4 7 2 9 3 6 7 2 5 12 16 16 9 11 18 11 14 16 14 13 19 10 5 11 14 17 19 15 24 20
27 15 12 16 10 21 23 15 2 2 3 1 3 2 3 7 6 4 4 6 4 5 9 13 11 11 10 13 15 17 16 14 11 6 13 18 13 17 15 21 13 19 22 21 20
17 5 11 12 11 24 20 1 2 3 2 1 2 5 7 5 5 5 2 2 1 4 3 9 4 4 10 13 13 12 4 4 3 5 12 13 13 23 8 21 20 20 21 20 20
18 16 10 16 34 22 3 3 1 2 2 4 3 10 6 3 0 4 3 2 5 3 2 2 10 5 5 3 7 8 5 5 6 4 10 10 8 15 18 24 15 11 16 18 21
21 24 12 18 23 5 1 2 4 4 3 2 5 8 4 3 1 3 1 2 2 3 6 3 6 9 14 17 12 4 9 16 14 19 13 6 7 20 20 17 21 26 24 20 22
7 11 5 17 8 4 2 4 3 3 6 2 5 4 2 1 1 3 2 3 4 5 4 2 5 3 9 11 11 9 8 6 7 7 13 10 12 12 4 12 21 22 28 25 20
6 3 9 14 1 1 2 5 2 5 4 5 3 4 3 2 5 2 4 7 2 3 4 4 4 7 5 3 14 13 10 7 6 7 5 13 11 26 17 19 13 21 26 25 21
4 1 12 10 1 2 2 3 2 7 5 6 3 6 6 4 3 3 7 7 1 5 1 2 4 6 7 7 5 6 7 14 5 4 5 12 15 3 5 4 6 12 15 25 22
2 2 10 3 3 3 4 3 6 8 8 6 7 10 5 4 1 5 5 5 6 4 3 3 1 4 8 4 4 4 9 10 14 7 5 3 4 4 16 18 10 9 14 18 25
3 2 2 2 1 4 4 5 5 7 4 6 6 8 6 9 6 5 4 3 4 3 4 3 2 6 5 7 6 9 15 16 7 5 6 7 8 12 19 18 19 20 20 21 24
2 4 4 5 7 14 5 3 3 5 6 11 5 12 7 4 6 12 10 7 2 4 3 6 5 3 7 10 16 18 19 15 7 16 9 9 16 19 17 20 15 15 17 26 23
2 3 2 2 1 12 11 6 12 7 9 6 12 9 12 11 9 0 4 3 6 2 5 1 4 3 12 11 18 16 17 19 11 17 16 15 18 16 18 19 7 13 17 22 20
3 2 0 3 2 4 5 7 11 6 9 14 15 11 13 19 14 15 11 4 5 6 6 6 3 1 8 7 15 12 6 9 11 12 4 5 11 18 20 21 13 17 15 17 19
Wind_Direction
313 308 306 305 303 300 296 296 298 300 305 310 316 319 319 318 312 303 273 250 272 285 277 270 269 270 281 246 242 191 230 236 227 227 238 279 288 283 254 180 237 227 152 177 161
304 306 307 305 300 295 293 290 289 289 292 300 308 317 319 323 314 292 274 214 313 299 282 272 254 260 247 243 216 212 219 236 234 234 255 256 265 286 285 242 281 29 2 145 157
309 309 304 302 296 293 291 291 284 282 286 291 300 312 319 328 310 240 120 35 331 319 304 245 240 253 241 237 221 223 233 225 249 239 263 267 273 276 281 266 210 167 144 148 163
307 302 297 296 293 289 283 281 280 276 274 279 290 307 317 326 299 177 213 330 337 332 340 207 211 243 237 241 242 251 240 234 248 267 259 252 287 275 281 253 239 159 159 160 172
309 306 302 299 295 291 283 274 270 269 268 272 284 302 328 280 248 259 276 318 314 313 6 356 264 228 243 245 254 252 243 234 239 243 254 270 258 259 268 269 273 159 163 176 179
310 308 305 303 300 293 286 275 262 255 259 267 275 294 277 268 250 280 283 301 308 324 319 323 277 302 283 252 252 285 269 252 252 257 245 243 255 239 255 257 271 250 184 184 191
314 312 309 307 306 301 300 283 264 245 243 253 269 277 247 248 267 273 278 284 287 285 270 278 275 262 331 294 284 260 271 275 244 243 250 254 258 242 245 252 264 262 197 192 194
312 314 308 307 311 308 306 304 279 237 232 232 267 278 257 263 276 272 274 274 268 270 253 255 251 259 209 273 290 263 233 242 241 239 250 253 253 245 231 234 247 252 210 188 192
307 320 306 313 314 312 302 302 282 215 208 222 261 241 265 288 236 255 245 256 279 247 263 250 227 229 195 224 269 247 253 227 249 245 239 217 256 251 222 232 244 246 230 204 194
319 315 316 320 313 315 312 274 171 162 199 242 218 208 274 255 232 179 57 319 306 313 303 252 218 188 65 224 232 235 258 262 262 222 224 243 254 247 219 220 237 245 243 206 208
319 323 320 319 315 310 263 99 56 340 204 191 183 234 309 228 308 314 311 281 257 272 249 274 225 220 221 235 257 278 284 271 266 239 237 236 245 243 236 217 221 233 236 235 200
321 321 323 324 315 305 208 182 139 125 225 235 266 233 258 292 287 286 262 190 208 231 240 279 269 258 232 238 242 247 256 265 278 264 272 272 276 261 238 233 228 225 222 228 224
322 322 325 329 356 113 113 114 128 102 354 270 225 247 244 222 236 273 204 185 214 219 224 219 243 281 250 251 242 242 241 257 265 279 279 287 282 262 266 239 236 225 227 222 221
319 321 322 257 115 128 82 131 118 107 303 316 196 262 160 224 232 224 214 234 279 238 264 236 249 256 281 280 270 271 266 265 264 265 264 205 269 256 255 261 259 231 217 221 220
319 320 313 193 140 151 147 137 121 23 294 158 111 158 169 221 313 171 183 185 221 261 353 259 321 315 304 309 305 284 309 290 282 284 272 249 261 251 215 251 245 246 234 223 219
319 320 155 127 87 127 134 128 96 85 263 146 79 313 266 245 255 270 208 206 196 233 249 259 260 270 279 287 281 289 303 296 281 256 253 248 229 259 230 238 252 242 235 226 219
328 189 126 135 128 138 130 103 27 157 240 303 340 261 268 277 273 304 343 33 255 3 315 311 240 229 261 283 285 279 309 299 296 200 241 228 222 243 245 225 237 241 234 223 220
97 102 90 123 137 135 65 46 96 140 17 37 327 275 266 273 261 7 9 352 289 243 352 70 327 42 42 340 291 289 208 222 236 208 267 219 240 256 230 239 253 258 254 232 228
96 79 79 122 135 73 34 75 205 194 136 127 294 272 265 213 148 37 262 245 263 8 165 75 267 332 312 292 296 313 271 242 255 263 282 289 267 268 241 244 232 250 256 259 229
53 55 65 149 137 334 66 242 233 119 129 146 194 289 268 351 15 64 284 288 8 100 120 167 296 268 302 318 284 227 264 264 205 240 243 235 250 253 277 226 225 230 238 242 251
60 83 162 168 296 21 168 235 179 155 150 179 218 282 286 252 180 235 235 300 152 54 95 148 151 279 303 319 332 327 307 247 218 205 224 252 246 246 252 254 259 234 240 239 234
117 52 174 165 272 225 225 222 198 186 205 238 253 265 253 286 303 227 217 201 323 61 49 202 161 268 254 298 66 330 345 319 218 245 242 240 262 154 95 22 34 344 314 260 242
87 116 167 149 236 226 272 254 206 179 196 202 214 233 213 242 247 217 249 253 231 125 210 230 273 321 337 298 302 311 310 314 322 266 228 219 289 69 335 328 318 321 313 336 258
133 175 140 211 242 284 242 227 217 213 212 191 221 257 242 250 219 246 236 303 124 133 286 77 206 185 208 240 270 291 294 301 266 269 318 270 343 332 333 319 310 306 311 327 317
176 216 174 196 220 221 216 231 195 215 211 201 226 217 195 237 229 252 256 269 266 186 135 135 212 235 251 276 286 276 279 281 229 260 257 295 311 310 325 323 308 316 335 325 306
225 213 195 262 218 199 220 209 229 225 181 212 235 212 220 234 210 123 165 188 224 140 156 234 259 268 289 288 280 299 302 294 259 263 263 268 282 353 327 335 29 9 354 343 325
147 59 47 190 199 181 199 212 222 195 221 230 217 230 233 243 231 237 249 188 195 162 179 165 173 31 286 316 321 298 281 331 333 32 318 306 349 342 341 329 26 15 334 343 337